DW1653 Weather Reports


Display with metric or nautical units.
time (UTC)temp
F
wind
direction
speed
MPH
gust
MPH
rain 1hr
in
rain 24hr
in
rain mn
in
humidity
%
barometer
mb
20260903143318 76 254 2.0 8.0 0.00 0.51 0.48 91 1015.2
20260903142813 76 281 5.0 8.0 0.00 0.51 0.48 91 1015.0
20260903142328 75 273 4.0 7.0 0.00 0.51 0.48 92 1015.1
20260903141819 75 283 2.0 8.0 0.00 0.51 0.48 93 1015.0
20260903141354 75 254 5.0 10.0 0.00 0.51 0.48 93 1015.0
20260903140825 75 250 6.0 10.0 0.00 0.51 0.48 93 1014.9
20260903140319 74 269 2.0 7.0 0.00 0.51 0.48 94 1014.9
20260903135831 74 250 3.0 7.0 0.00 0.51 0.48 94 1015.0
20260903135323 74 253 4.0 9.0 0.00 0.51 0.48 94 1015.0
20260903134819 73 300 4.0 10.0 0.00 0.51 0.48 94 1015.2
20260903134330 73 316 3.0 10.0 0.00 0.51 0.48 94 1015.4
20260903133824 73 257 2.0 9.0 0.00 0.51 0.48 95 1015.3
20260903133316 73 250 3.0 8.0 0.00 0.51 0.48 95 1015.2
20260903132828 72 265 3.0 5.0 0.00 0.51 0.48 94 1015.4
20260903132318 72 249 2.0 4.0 0.00 0.51 0.48 94 1015.5
20260903131830 72 251 1.0 4.0 0.00 0.51 0.48 94 1015.5
20260903131342 72 201 1.0 4.0 0.00 0.51 0.48 94 1015.4
20260903130833 72 260 1.0 4.0 0.00 0.51 0.48 94 1015.6
20260903130344 72 256 2.0 7.0 0.00 0.51 0.48 95 1015.7
20260903125818 71 263 3.0 5.0 0.00 0.51 0.48 94 1016.3
20260903125350 71 267 2.0 4.0 0.00 0.51 0.48 94 1016.0
20260903124820 71 240 1.0 4.0 0.00 0.51 0.48 94 1015.7
20260903124333 71 267 2.0 6.0 0.00 0.51 0.48 94 1015.9
20260903123825 71 271 2.0 7.0 0.00 0.51 0.48 94 1015.9
20260903123336 71 218 2.0 7.0 0.00 0.51 0.48 94 1015.7
20260903122828 71 184 3.0 7.0 0.00 0.51 0.48 94 1015.7
20260903122320 71 159 2.0 7.0 0.00 0.51 0.48 94 1015.8
20260903121831 71 238 2.0 9.0 0.00 0.51 0.48 94 1016.0
20260903121323 71 186 3.0 9.0 0.00 0.51 0.48 94 1016.0
20260903120819 71 242 3.0 5.0 0.00 0.51 0.48 94 1016.0
20260903120350 71 234 2.0 5.0 0.00 0.51 0.48 94 1016.0
20260903115820 71 258 3.0 4.0 0.00 0.51 0.48 94 1016.0
20260903115312 71 229 2.0 6.0 0.00 0.51 0.48 94 1016.0
20260903114826 71 252 1.0 6.0 0.00 0.51 0.48 94 1015.9
20260903114317 71 217 2.0 5.0 0.00 0.51 0.48 94 1016.0
20260903113829 71 202 2.0 5.0 0.00 0.51 0.48 94 1016.1
20260903113321 71 248 2.0 5.0 0.00 0.51 0.48 94 1016.1
20260903112832 71 257 3.0 4.0 0.00 0.51 0.48 94 1016.1
20260903112328 71 244 2.0 4.0 0.01 0.51 0.48 94 1015.9
20260903111819 71 227 2.0 5.0 0.01 0.51 0.48 94 1015.6
20260903111332 71 277 2.0 5.0 0.01 0.51 0.48 94 1015.4
20260903110824 71 234 2.0 4.0 0.02 0.51 0.48 94 1015.6
20260903110317 71 245 1.0 4.0 0.04 0.51 0.48 94 1015.5
20260903105829 71 221 2.0 4.0 0.06 0.51 0.48 94 1015.2
20260903105320 71 234 2.0 7.0 0.07 0.51 0.48 94 1015.2
20260903104832 71 205 2.0 7.0 0.09 0.51 0.48 94 1015.3
20260903104328 71 178 3.0 7.0 0.10 0.51 0.48 94 1015.1
20260903103820 71 232 2.0 5.0 0.11 0.51 0.48 94 1015.6
20260903103336 71 182 2.0 5.0 0.12 0.51 0.48 94 1015.7
20260903102845 71 197 2.0 6.0 0.12 0.51 0.48 94 1015.9
20260903102315 71 229 2.0 6.0 0.11 0.50 0.47 94 1015.9
20260903101849 71 275 2.0 7.0 0.11 0.50 0.47 94 1015.9
20260903101342 71 219 3.0 7.0 0.11 0.50 0.47 94 1015.9
20260903100833 71 214 2.0 9.0 0.10 0.49 0.46 94 1016.1
20260903100323 71 230 3.0 8.0 0.08 0.47 0.44 94 1016.3
20260903095815 71 249 3.0 9.0 0.06 0.45 0.42 94 1016.2
20260903095326 71 252 5.0 13.0 0.04 0.43 0.40 94 1016.3
20260903094842 71 213 4.0 13.0 0.03 0.42 0.39 94 1016.2
20260903094332 71 276 3.0 12.0 0.02 0.41 0.38 94 1016.1
20260903093823 71 268 5.0 12.0 0.01 0.40 0.37 94 1016.3
20260903093355 71 265 6.0 9.0 0.00 0.39 0.36 94 1016.3
20260903092825 71 280 2.0 9.0 0.00 0.39 0.36 94 1015.9
20260903092317 71 252 4.0 9.0 0.00 0.39 0.36 94 1016.0
20260903091829 71 225 2.0 7.0 0.00 0.39 0.36 94 1015.9
20260903091320 72 278 3.0 7.0 0.00 0.39 0.36 94 1016.2
20260903090832 72 275 2.0 6.0 0.00 0.39 0.36 94 1016.3
20260903090343 72 275 3.0 8.0 0.00 0.39 0.36 94 1016.4
20260903085818 72 299 4.0 8.0 0.00 0.39 0.36 94 1016.6
20260903085333 72 250 5.0 8.0 0.01 0.39 0.36 94 1016.8
20260903084824 72 275 3.0 5.0 0.01 0.39 0.36 94 1016.6
20260903084319 72 278 2.0 4.0 0.02 0.39 0.36 94 1016.3
20260903083324 72 275 3.0 4.0 0.05 0.39 0.36 94 1016.2
20260903082855 72 296 3.0 4.0 0.07 0.39 0.36 94 1015.9
20260903082325 72 200 1.0 3.0 0.10 0.39 0.36 94 1015.6
20260903081816 72 250 1.0 4.0 0.12 0.39 0.36 94 1015.7
20260903081312 72 205 2.0 5.0 0.14 0.39 0.36 94 1015.9
20260903080847 72 242 3.0 7.0 0.16 0.39 0.36 94 1016.2
20260903080317 72 266 4.0 7.0 0.18 0.39 0.36 94 1016.4
20260903075828 72 274 4.0 7.0 0.19 0.39 0.36 94 1016.5
20260903075320 72 209 2.0 9.0 0.18 0.38 0.35 94 1015.8
20260903074831 72 150 4.0 9.0 0.18 0.37 0.34 94 1015.5
20260903074325 72 164 3.0 5.0 0.18 0.37 0.34 94 1016.2
20260903073836 71 230 1.0 6.0 0.16 0.35 0.32 94 1016.2
20260903073327 71 144 1.0 6.0 0.14 0.33 0.30 94 1016.6
20260903072818 71 170 2.0 4.0 0.12 0.31 0.28 93 1017.0
20260903072333 71 267 2.0 6.0 0.10 0.29 0.26 93 1017.4
20260903071824 71 274 2.0 5.0 0.08 0.27 0.24 93 1017.4
20260903071315 71 256 2.0 7.0 0.06 0.25 0.22 93 1017.5
20260903070827 71 218 2.0 7.0 0.04 0.23 0.20 93 1017.5
20260903070319 71 188 3.0 7.0 0.02 0.21 0.18 93 1017.4
20260903065829 71 244 3.0 5.0 0.01 0.20 0.17 93 1017.5
20260903065321 71 258 2.0 5.0 0.01 0.20 0.17 93 1017.2
20260903064832 72 257 1.0 4.0 0.04 0.19 0.16 93 1017.0
20260903064328 72 257 1.0 4.0 0.13 0.19 0.16 93 1017.2
20260903063842 72 257 1.0 2.0 0.16 0.19 0.16 93 1017.4
20260903063333 72 249 1.0 2.0 0.16 0.19 0.16 93 1017.4
20260903062825 72 50 0.0 2.0 0.16 0.19 0.16 93 1017.3
20260903062316 72 50 0.0 2.0 0.16 0.19 0.16 93 1017.3
20260903061827 72 50 1.0 2.0 0.16 0.19 0.16 93 1017.3
20260903061322 72 50 0.0 1.0 0.16 0.19 0.16 93 1017.4
20260903060816 72 50 0.0 1.0 0.16 0.19 0.16 93 1017.4
20260903060326 72 50 0.0 1.0 0.16 0.19 0.16 93 1017.7
20260903055822 72 50 0.0 3.0 0.16 0.19 0.16 93 1017.6
20260903055315 72 50 2.0 9.0 0.15 0.18 0.15 93 1017.9
20260903054825 72 325 5.0 9.0 0.12 0.15 0.12 93 1018.2
20260903054317 72 344 3.0 7.0 0.02 0.05 0.02 93 1018.5
20260903053829 72 321 2.0 4.0 0.00 0.03 0.00 93 1018.2
20260903053321 72 321 2.0 6.0 0.00 0.03 0.00 93 1017.9
20260903052814 72 343 3.0 5.0 0.00 0.03 0.00 93 1017.9
20260903052326 72 338 1.0 3.0 0.00 0.03 0.00 93 1017.8
20260903051842 72 278 0.0 2.0 0.00 0.03 0.00 93 1017.7
20260903051336 72 278 1.0 2.0 0.00 0.03 0.00 93 1017.7
20260903050318 72 49 0.0 1.0 0.00 0.03 0.00 93 1017.7
20260903045830 72 49 0.0 1.0 0.00 0.03 0.00 93 1017.7
20260903045324 72 49 0.0 1.0 0.00 0.03 0.00 93 1017.7
20260903044815 72 49 0.0 1.0 0.00 0.03 0.00 93 1017.6
20260903044326 72 49 0.0 1.0 0.00 0.03 0.00 92 1017.5
20260903043817 73 344 0.0 3.0 0.00 0.03 0.00 92 1017.9
20260903043348 73 344 1.0 3.0 0.00 0.03 0.00 92 1018.2
20260903042823 73 342 0.0 5.0 0.00 0.03 0.00 92 1018.6
20260903042317 73 350 0.0 2.0 0.00 0.03 0.00 92 1018.6
20260903041829 73 246 0.0 1.0 0.00 0.03 0.00 92 1018.4
20260903041323 73 246 0.0 0.0 0.00 0.03 0.00 92 1018.2
20260903040834 73 246 0.0 0.0 0.00 0.03 0.00 92 1018.1
20260903040325 73 246 0.0 2.0 0.01 0.03 0.00 92 1018.4
20260903035814 73 246 0.0 2.0 0.01 0.03 0.00 92 1018.6
20260903035326 73 246 1.0 2.0 0.01 0.03 0.00 92 1018.6
20260903034821 73 196 1.0 2.0 0.01 0.03 0.00 92 1018.4
20260903034332 73 163 1.0 3.0 0.01 0.03 0.00 92 1018.3
20260903033844 73 124 1.0 3.0 0.01 0.03 0.03 92 1018.3
20260903033314 73 150 1.0 3.0 0.01 0.03 0.03 92 1018.1
20260903032825 73 155 1.0 3.0 0.01 0.03 0.03 92 1018.1
20260903032319 72 111 0.0 3.0 0.01 0.03 0.03 92 1018.1
20260903031831 72 141 1.0 3.0 0.01 0.03 0.03 92 1017.9
20260903031325 72 105 1.0 3.0 0.01 0.03 0.03 92 1018.0
20260903030820 72 97 0.0 4.0 0.01 0.03 0.03 92 1018.2
20260903030331 72 90 1.0 4.0 0.01 0.02 0.02 92 1018.0
20260903025823 72 103 1.0 2.0 0.01 0.02 0.02 92 1018.2
20260903025334 72 103 1.0 1.0 0.01 0.02 0.02 92 1018.3
20260903024845 72 103 0.0 1.0 0.01 0.02 0.02 92 1018.6
20260903024338 72 103 1.0 1.0 0.01 0.02 0.02 92 1018.6
20260903023324 72 103 0.0 2.0 0.01 0.02 0.02 92 1018.4
20260903022815 72 120 1.0 4.0 0.02 0.02 0.02 92 1018.2
20260903022329 72 47 0.0 2.0 0.02 0.02 0.02 92 1018.2
20260903021825 72 105 1.0 4.0 0.02 0.02 0.02 91 1018.1
20260903021319 72 130 1.0 4.0 0.02 0.02 0.02 91 1018.2
20260903020831 72 119 0.0 3.0 0.02 0.02 0.02 91 1018.3
20260903020342 72 121 1.0 3.0 0.01 0.01 0.01 91 1018.5
20260903015853 72 95 1.0 3.0 0.01 0.01 0.01 91 1018.5
20260903015323 72 67 0.0 3.0 0.01 0.01 0.01 91 1018.6
20260903014834 72 48 0.0 2.0 0.01 0.01 0.01 91 1018.7
20260903014346 72 55 1.0 2.0 0.01 0.01 0.01 91 1018.6
20260903013817 72 87 1.0 3.0 0.01 0.02 0.01 90 1018.8
20260903013330 72 92 1.0 3.0 0.01 0.02 0.01 90 1018.9
20260903012844 72 106 1.0 3.0 0.00 0.01 0.00 90 1018.8
20260903012319 72 126 1.0 3.0 0.00 0.01 0.00 90 1018.9
20260903011830 72 75 0.0 3.0 0.00 0.01 0.00 90 1019.3
20260903011344 72 92 1.0 3.0 0.00 0.01 0.00 90 1019.2
20260903010817 72 67 0.0 3.0 0.00 0.01 0.00 90 1019.2
20260903010329 72 72 2.0 3.0 0.00 0.01 0.00 90 1019.3
20260903005841 72 79 1.0 4.0 0.00 0.01 0.00 90 1019.3
20260903005332 72 55 1.0 4.0 0.00 0.01 0.00 89 1019.0
20260903004824 72 94 1.0 3.0 0.00 0.01 0.00 89 1018.9
20260903004335 72 52 1.0 5.0 0.00 0.01 0.00 89 1019.1
20260903003825 72 68 2.0 5.0 0.00 0.19 0.00 89 1018.9
20260903003321 72 118 1.0 3.0 0.00 0.19 0.00 89 1019.0
20260903002852 72 75 2.0 3.0 0.00 0.19 0.00 89 1018.8
20260903002322 72 69 1.0 3.0 0.00 0.19 0.00 89 1018.9
20260903001817 72 96 1.0 5.0 0.00 0.19 0.00 89 1018.8
20260903001328 72 100 1.0 4.0 0.00 0.19 0.00 89 1018.8
20260903000819 72 122 2.0 4.0 0.00 0.19 0.00 89 1018.7
20260903000332 72 17 2.0 4.0 0.00 0.19 0.00 89 1018.4
20260902235822 72 153 1.0 4.0 0.00 0.19 0.00 89 1018.4
20260902235318 72 83 1.0 4.0 0.00 0.19 0.00 89 1018.4
20260902234828 72 119 1.0 4.0 0.00 0.19 0.00 89 1018.3
20260902234320 72 46 2.0 6.0 0.00 0.19 0.00 89 1018.3
20260902233851 72 124 1.0 6.0 0.00 0.19 0.00 89 1018.2
20260902233321 72 77 1.0 5.0 0.00 0.19 0.00 89 1018.1
20260902232853 72 79 2.0 5.0 0.00 0.19 0.00 88 1018.2
20260902232323 72 109 1.0 7.0 0.00 0.19 0.00 88 1018.2
20260902231815 72 101 2.0 7.0 0.00 0.19 0.00 88 1018.2
20260902231330 72 70 1.0 5.0 0.00 0.19 0.00 88 1018.4
20260902230821 72 65 1.0 6.0 0.00 0.19 0.00 88 1018.3
20260902230317 72 55 2.0 6.0 0.00 0.19 0.00 88 1018.5
20260902225828 72 167 1.0 5.0 0.00 0.19 0.00 88 1018.5
20260902225320 72 84 2.0 6.0 0.00 0.19 0.00 88 1018.7
20260902224830 72 73 2.0 8.0 0.00 0.19 0.00 87 1018.7
20260902224321 72 94 2.0 8.0 0.00 0.19 0.00 87 1018.7
20260902223815 72 74 2.0 7.0 0.00 0.19 0.00 87 1018.8
20260902223348 72 101 2.0 9.0 0.00 0.19 0.00 87 1018.8
20260902222821 72 32 2.0 9.0 0.00 0.19 0.00 87 1018.9
20260902222333 72 80 2.0 8.0 0.00 0.19 0.00 87 1019.0
20260902221845 72 88 2.0 6.0 0.00 0.19 0.00 87 1019.2
20260902220829 72 171 2.0 8.0 0.00 0.19 0.00 87 1019.5
20260902220320 72 47 2.0 7.0 0.00 0.19 0.00 86 1019.5
20260902215815 72 80 2.0 7.0 0.00 0.19 0.00 86 1019.4
20260902215326 72 28 2.0 6.0 0.00 0.19 0.00 86 1019.3
20260902214817 72 111 2.0 6.0 0.00 0.19 0.00 86 1019.1
20260902214329 72 71 2.0 6.0 0.00 0.19 0.00 86 1019.2
20260902213821 72 66 2.0 9.0 0.00 0.19 0.00 86 1019.4
20260902213317 72 38 4.0 9.0 0.00 0.19 0.00 86 1019.4
20260902212848 72 80 2.0 9.0 0.00 0.19 0.00 86 1019.4
20260902212318 73 42 2.0 5.0 0.00 0.19 0.00 86 1019.4
20260902211829 73 112 2.0 7.0 0.00 0.19 0.00 85 1019.4
20260902211323 73 17 3.0 7.0 0.00 0.19 0.00 85 1019.4
20260902210816 73 105 2.0 8.0 0.00 0.19 0.00 85 1019.2
20260902210326 73 82 2.0 8.0 0.00 0.19 0.00 85 1019.1
20260902205818 73 95 3.0 9.0 0.00 0.19 0.00 84 1019.1
20260902205330 73 74 2.0 9.0 0.00 0.19 0.00 85 1019.1
20260902204825 73 55 2.0 6.0 0.00 0.19 0.00 84 1019.1
20260902204321 73 79 3.0 5.0 0.00 0.19 0.00 85 1019.1
20260902203833 74 65 1.0 5.0 0.00 0.19 0.00 84 1019.2
20260902203325 74 99 2.0 7.0 0.00 0.19 0.00 84 1019.2
20260902202815 74 107 3.0 7.0 0.00 0.19 0.00 84 1019.2
20260902202328 74 104 1.0 5.0 0.00 0.19 0.00 83 1019.2
20260902201844 74 57 2.0 5.0 0.00 0.19 0.00 83 1019.3
20260902201315 74 57 1.0 5.0 0.00 0.19 0.00 83 1019.3
20260902200828 74 63 2.0 7.0 0.00 0.19 0.00 83 1019.2
20260902200324 74 5 1.0 7.0 0.00 0.19 0.00 83 1019.2
20260902195816 74 107 2.0 7.0 0.00 0.19 0.00 83 1019.1
20260902195327 74 161 1.0 9.0 0.00 0.19 0.00 83 1019.2
20260902194819 74 47 3.0 9.0 0.00 0.19 0.00 82 1019.2
20260902194334 74 113 1.0 5.0 0.00 0.19 0.00 82 1019.3
20260902193847 74 97 2.0 5.0 0.00 0.19 0.00 82 1019.4
20260902193317 74 112 2.0 6.0 0.00 0.19 0.00 82 1019.5
20260902192830 74 138 3.0 8.0 0.00 0.19 0.00 82 1019.4
20260902192341 75 112 2.0 6.0 0.00 0.19 0.00 82 1019.4
20260902191816 75 68 2.0 8.0 0.00 0.19 0.00 82 1019.4
20260902191351 74 101 3.0 8.0 0.00 0.19 0.00 82 1019.3
20260902190821 74 135 2.0 7.0 0.00 0.19 0.00 82 1019.3
20260902190316 75 122 2.0 6.0 0.00 0.19 0.00 82 1019.4
20260902185811 74 111 2.0 6.0 0.00 0.19 0.00 82 1019.4
20260902185325 74 107 2.0 6.0 0.00 0.19 0.00 82 1019.6
20260902184816 74 90 1.0 7.0 0.00 0.19 0.00 82 1019.7
20260902184348 75 100 2.0 7.0 0.00 0.19 0.00 82 1019.9
20260902183819 75 78 3.0 7.0 0.00 0.19 0.00 82 1019.8
20260902183316 75 130 2.0 6.0 0.00 0.19 0.00 81 1019.8
20260902182828 75 360 2.0 6.0 0.00 0.19 0.00 81 1019.7
20260902182320 75 84 2.0 5.0 0.00 0.19 0.00 81 1019.7
20260902181831 75 53 2.0 5.0 0.00 0.19 0.00 81 1019.6
20260902181325 75 75 1.0 5.0 0.00 0.19 0.00 81 1019.7
20260902180817 75 130 1.0 8.0 0.00 0.19 0.00 81 1019.9
20260902180329 75 82 3.0 6.0 0.00 0.19 0.00 80 1020.2
20260902175822 75 146 2.0 6.0 0.00 0.19 0.00 81 1020.2
20260902175318 75 117 3.0 7.0 0.00 0.19 0.00 81 1020.3
20260902174831 75 69 1.0 7.0 0.00 0.19 0.00 81 1020.3
20260902174323 75 96 2.0 9.0 0.00 0.19 0.00 81 1020.3
20260902173856 75 82 3.0 9.0 0.00 0.19 0.00 81 1020.3
20260902173346 75 36 5.0 9.0 0.00 0.19 0.00 80 1020.2
20260902172816 75 39 2.0 9.0 0.00 0.19 0.00 81 1020.4
20260902172328 75 53 3.0 7.0 0.00 0.19 0.00 81 1020.3
20260902171821 74 98 3.0 7.0 0.00 0.19 0.00 81 1020.1
20260902171332 74 59 2.0 6.0 0.00 0.19 0.00 81 1020.0
20260902170823 74 51 3.0 6.0 0.00 0.19 0.00 81 1020.1
20260902170339 74 24 3.0 5.0 0.00 0.19 0.00 81 1020.1
20260902165829 74 84 2.0 5.0 0.00 0.19 0.00 81 1020.2
20260902165321 74 132 2.0 8.0 0.00 0.19 0.00 81 1020.3
20260902164816 74 76 2.0 8.0 0.00 0.19 0.00 80 1020.3
20260902164327 74 72 3.0 6.0 0.00 0.19 0.00 80 1020.3
20260902163822 74 49 3.0 8.0 0.00 0.19 0.00 80 1020.4
20260902163317 74 137 2.0 8.0 0.00 0.19 0.00 81 1020.4
20260902162832 74 20 2.0 8.0 0.00 0.19 0.00 80 1020.4
20260902162327 75 31 2.0 6.0 0.00 0.19 0.00 81 1020.4
20260902161839 75 163 2.0 8.0 0.00 0.19 0.00 81 1020.4
20260902161328 75 71 3.0 8.0 0.00 0.19 0.00 81 1020.4
20260902160840 74 58 2.0 11.0 0.00 0.19 0.00 81 1020.4
20260902160351 74 43 4.0 11.0 0.00 0.19 0.00 81 1020.5
20260902155821 74 148 4.0 8.0 0.00 0.19 0.00 81 1020.5
20260902155332 74 149 2.0 8.0 0.00 0.19 0.00 81 1020.4
20260902154823 74 109 2.0 8.0 0.00 0.19 0.00 81 1020.3
20260902154314 74 126 1.0 10.0 0.00 0.19 0.00 82 1020.3
20260902153848 74 80 3.0 10.0 0.00 0.19 0.00 82 1020.3
20260902153319 74 152 2.0 5.0 0.00 0.19 0.00 82 1020.2
20260902152815 74 86 1.0 10.0 0.00 0.19 0.00 82 1020.2
20260902152326 74 82 3.0 10.0 0.00 0.19 0.00 82 1020.4
20260902151838 74 78 3.0 10.0 0.00 0.19 0.00 83 1020.4
20260902151329 74 125 2.0 6.0 0.00 0.19 0.00 83 1020.4
20260902150820 74 108 2.0 10.0 0.00 0.19 0.00 83 1020.5
20260902150332 74 65 4.0 10.0 0.00 0.19 0.00 83 1020.5
20260902145823 73 83 3.0 8.0 0.00 0.19 0.00 84 1020.4
20260902145315 73 88 3.0 8.0 0.00 0.19 0.00 85 1020.4
20260902144814 73 92 2.0 6.0 0.00 0.19 0.00 85 1020.4
20260902144326 73 67 2.0 8.0 0.00 0.19 0.00 85 1020.3
20260902143817 73 51 2.0 7.0 0.00 0.19 0.00 85 1020.2